Orbital Elements at Epoch 2456487.5 (2013-Jul-14.0) TDB
Reference: JPL 5 (heliocentric ecliptic J2000)
Element | Value | Uncertainty (1-sigma) | Units |
e | .4202834339330183 | 0.0028313 | |
a | 1.744221713322629 | 0.0082538 | au |
q | 1.011154222106862 | 0.00031968 | au |
i | 9.949305962112311 | 0.04427 | deg |
node | 110.3562507419305 | 0.00081833 | deg |
peri | 208.6807919198183 | 0.12918 | deg |
M | 349.7336400362036 | 0.074478 | deg |
tp | 2456511.494679126542 (2013-Aug-06.99467913) | 0.09852 | TDB |
period | 841.3970010808791 2.30 | 5.9723 0.01635 | d yr |
n | .4278598563312387 | 0.003037 | deg/d |
Q | 2.477289204538397 | 0.011723 | au |
|
| | Orbit Determination Parameters
Additional Information
|